CW9825 Weather Reports


time (UTC)temp
C
wind
direction
speed
KPH
gust
KPH
rain 1hr
cm
rain 24hr
cm
rain mn
cm
humidity
%
barometer
mb
20200922205544 28 160 8.0 17.7 0.00 0.00 0.00 36 1014.5
20200922205049 28 169 4.8 14.5 0.00 0.00 0.00 36 1014.5
20200922204610 28 147 3.2 17.7 0.00 0.00 0.00 35 1014.5
20200922204049 28 171 4.8 11.3 0.00 0.00 0.00 37 1014.5
20200922203542 28 192 3.2 12.9 0.00 0.00 0.00 37 1014.5
20200922203116 28 124 6.4 12.9 0.00 0.00 0.00 35 1014.5
20200922202538 28 201 4.8 12.9 0.00 0.00 0.00 35 1014.6
20200922202041 28 187 1.6 17.7 0.00 0.00 0.00 34 1014.7
20200922201609 28 154 8.0 17.7 0.00 0.00 0.00 33 1014.8
20200922201034 27 140 3.2 17.7 0.00 0.00 0.00 32 1014.9
20200922200542 27 172 3.2 16.1 0.00 0.00 0.00 35 1014.8
20200922200143 28 129 8.0 19.3 0.00 0.00 0.00 34 1014.9
20200922195532 28 166 8.0 19.3 0.00 0.00 0.00 36 1015.1
20200922195041 28 142 3.2 16.1 0.00 0.00 0.00 35 1015.0
20200922194634 28 192 6.4 16.1 0.00 0.00 0.00 37 1015.1
20200922194038 28 192 4.8 9.7 0.00 0.00 0.00 36 1015.1
20200922193538 28 280 3.2 17.7 0.00 0.00 0.00 36 1015.1
20200922193102 27 212 3.2 17.7 0.00 0.00 0.00 37 1015.2
20200922192528 27 184 6.4 16.1 0.00 0.00 0.00 38 1015.3
20200922192027 27 192 6.4 16.1 0.00 0.00 0.00 40 1015.4
20200922191558 27 221 3.2 17.7 0.00 0.00 0.00 35 1015.5
20200922191025 27 132 8.0 17.7 0.00 0.00 0.00 39 1015.5
20200922190534 27 185 1.6 14.5 0.00 0.00 0.00 39 1015.5
20200922190046 27 188 4.8 14.5 0.00 0.00 0.00 37 1015.7
20200922185530 27 140 8.0 16.1 0.00 0.00 0.00 38 1015.7
20200922185026 27 140 9.7 16.1 0.00 0.00 0.00 38 1015.8
20200922184558 27 157 8.0 16.1 0.00 0.00 0.00 38 1015.9
20200922184027 27 289 4.8 17.7 0.00 0.00 0.00 42 1015.9
20200922183521 27 209 9.7 17.7 0.00 0.00 0.00 40 1015.9
20200922183031 27 162 3.2 14.5 0.00 0.00 0.00 40 1016.1
20200922182518 27 144 4.8 14.5 0.00 0.00 0.00 44 1016.1
20200922182017 27 187 4.8 19.3 0.00 0.00 0.00 43 1016.2
20200922181529 26 179 8.0 20.9 0.00 0.00 0.00 42 1016.2
20200922181031 26 160 4.8 19.3 0.00 0.00 0.00 45 1016.4
20200922180516 26 172 4.8 12.9 0.00 0.00 0.00 46 1016.4
20200922180029 26 190 6.4 22.5 0.00 0.00 0.00 46 1016.5
20200922175522 26 150 12.9 22.5 0.00 0.00 0.00 44 1016.6
20200922175014 26 180 3.2 19.3 0.00 0.00 0.00 49 1016.7
20200922174544 26 147 12.9 20.9 0.00 0.00 0.00 47 1016.7
20200922174021 26 148 9.7 20.9 0.00 0.00 0.00 46 1016.8
20200922173517 26 138 8.0 17.7 0.00 0.00 0.00 47 1016.8
20200922173108 26 168 8.0 17.7 0.00 0.00 0.00 48 1016.9
20200922172512 26 148 6.4 16.1 0.00 0.00 0.00 50 1017.0
20200922172019 26 121 9.7 16.1 0.00 0.00 0.00 49 1017.0
20200922171012 26 119 8.0 14.5 0.00 0.00 0.00 51 1017.0
20200922170510 25 144 6.4 12.9 0.00 0.00 0.00 52 1017.1
20200922165512 25 184 4.8 11.3 0.00 0.00 0.00 53 1017.2
20200922165107 25 157 6.4 11.3 0.00 0.00 0.00 51 1017.2
20200922164658 25 177 6.4 16.1 0.00 0.00 0.00 53 1017.2
20200922164057 25 127 6.4 16.1 0.00 0.00 0.00 52 1017.2
20200922163556 24 205 6.4 14.5 0.00 0.00 0.00 54 1017.4
20200922163257 24 162 9.7 16.1 0.00 0.00 0.00 52 1017.6
20200922162552 24 132 8.0 16.1 0.00 0.00 0.00 53 1017.6
20200922162111 23 117 4.8 12.9 0.00 0.00 0.00 53 1017.7
20200922161643 23 142 4.8 12.9 0.00 0.00 0.00 52 1017.8
20200922161053 23 146 8.0 12.9 0.00 0.00 0.00 52 1017.8
20200922160546 23 147 4.8 12.9 0.00 0.00 0.00 56 1017.8
20200922160232 23 159 3.2 16.1 0.00 0.00 0.00 55 1017.8
20200922155545 22 182 6.4 16.1 0.00 0.00 0.00 53 1017.9
20200922155043 22 132 8.0 16.1 0.00 0.00 0.00 55 1017.9
20200922154653 22 147 8.0 12.9 0.00 0.00 0.00 56 1017.8
20200922154046 22 144 3.2 12.9 0.00 0.00 0.00 59 1017.9
20200922153549 21 159 6.4 16.1 0.00 0.00 0.00 58 1017.9
20200922153143 21 142 9.7 16.1 0.00 0.00 0.00 58 1017.9
20200922152537 21 153 6.4 17.7 0.00 0.00 0.00 57 1018.0
20200922152037 21 129 11.3 17.7 0.00 0.00 0.00 58 1017.9
20200922151640 20 155 6.4 14.5 0.00 0.00 0.00 60 1017.9
20200922151040 20 192 4.8 11.3 0.00 0.00 0.00 61 1017.9
20200922150602 19 139 6.4 16.1 0.00 0.00 0.00 59 1018.0
20200922150053 19 159 6.4 16.1 0.00 0.00 0.00 60 1018.0
20200922145526 18 186 8.0 12.9 0.00 0.00 0.00 62 1018.1
20200922145028 18 175 4.8 11.3 0.00 0.00 0.00 68 1018.1
20200922144625 17 166 3.2 9.7 0.00 0.00 0.00 69 1018.1
20200922144023 17 142 4.8 12.9 0.00 0.00 0.00 69 1017.9
20200922143521 17 191 4.8 16.1 0.00 0.00 0.00 66 1017.9
20200922143045 17 138 8.0 14.5 0.00 0.00 0.00 69 1017.9
20200922142519 17 144 6.4 12.9 0.00 0.00 0.00 69 1017.9
20200922142016 16 144 4.8 8.0 0.00 0.00 0.00 71 1017.9
20200922141559 16 138 1.6 8.0 0.00 0.00 0.00 74 1017.9
20200922141019 15 196 3.2 8.0 0.00 0.00 0.00 77 1018.0
20200922140516 15 150 3.2 9.7 0.00 0.00 0.00 77 1017.9
20200922140031 15 151 1.6 9.7 0.00 0.00 0.00 78 1017.9
20200922135511 14 242 3.2 6.4 0.00 0.00 0.00 82 1017.9
20200922135011 13 277 0.0 4.8 0.00 0.00 0.00 82 1017.9
20200922134525 13 277 1.6 4.8 0.00 0.00 0.00 84 1017.9
20200922134020 13 277 1.6 4.8 0.00 0.00 0.00 86 1018.0
20200922133510 12 277 0.0 0.0 0.00 0.00 0.00 86 1018.0
20200922133020 12 277 0.0 0.0 0.00 0.00 0.00 87 1017.9
20200922132509 12 277 0.0 0.0 0.00 0.00 0.00 88 1017.9
20200922132010 11 277 0.0 0.0 0.00 0.00 0.00 88 1017.9
20200922131006 11 277 0.0 0.0 0.00 0.00 0.00 88 1017.8
20200922130514 11 277 0.0 0.0 0.00 0.00 0.00 89 1017.9
20200922130200 10 277 0.0 1.6 0.00 0.00 0.00 89 1017.9
20200922125600 10 277 0.0 1.6 0.00 0.00 0.00 89 1017.8
20200922125117 10 277 0.0 1.6 0.00 0.00 0.00 89 1017.8
20200922124701 10 277 0.0 3.2 0.00 0.00 0.00 90 1017.8
20200922124057 10 277 0.0 3.2 0.00 0.00 0.00 89 1017.8
20200922123558 10 277 1.6 3.2 0.00 0.00 0.00 88 1017.8
20200922123222 10 277 0.0 1.6 0.00 0.00 0.00 89 1017.7
20200922122602 10 277 0.0 1.6 0.00 0.00 0.00 89 1017.8
20200922122056 10 277 0.0 1.6 0.00 0.00 0.00 89 1017.7
20200922121634 10 277 0.0 3.2 0.00 0.00 0.00 90 1017.7
20200922121054 10 277 0.0 3.2 0.00 0.00 0.00 90 1017.7
20200922120554 10 277 1.6 4.8 0.00 0.00 0.00 90 1017.5
20200922120202 10 277 0.0 4.8 0.00 0.00 0.00 91 1017.5
20200922115106 10 277 1.6 3.2 0.00 0.00 0.00 88 1017.3
20200922114727 10 277 0.0 3.2 0.00 0.00 0.00 88 1017.3
20200922114054 11 277 1.6 3.2 0.00 0.00 0.00 87 1017.3
20200922113552 11 277 1.6 4.8 0.00 0.00 0.00 87 1017.3
20200922113201 11 277 1.6 4.8 0.00 0.00 0.00 88 1017.3
20200922112602 10 277 0.0 3.2 0.00 0.00 0.00 90 1017.4
20200922112051 10 277 0.0 3.2 0.00 0.00 0.00 89 1017.4
20200922111629 10 277 0.0 4.8 0.00 0.00 0.00 89 1017.3
20200922111050 11 277 1.6 4.8 0.00 0.00 0.00 88 1017.3
20200922110551 10 277 3.2 4.8 0.00 0.00 0.00 90 1017.3
20200922110151 10 277 1.6 3.2 0.00 0.00 0.00 90 1017.4
20200922105547 10 277 0.0 3.2 0.00 0.00 0.00 90 1017.4
20200922105053 10 277 0.0 3.2 0.00 0.00 0.00 90 1017.3
20200922104659 10 277 0.0 3.2 0.00 0.00 0.00 89 1017.3
20200922104046 10 277 0.0 3.2 0.00 0.00 0.00 88 1017.4
20200922103558 10 277 0.0 4.8 0.00 0.00 0.00 88 1017.4
20200922103214 11 277 1.6 4.8 0.00 0.00 0.00 86 1017.4
20200922102048 11 277 3.2 4.8 0.00 0.00 0.00 86 1017.4
20200922101628 10 277 1.6 4.8 0.00 0.00 0.00 87 1017.4
20200922101107 10 277 0.0 0.0 0.00 0.00 0.00 88 1017.3
20200922100546 10 277 0.0 0.0 0.00 0.00 0.00 89 1017.4
20200922100211 10 277 0.0 0.0 0.00 0.00 0.00 90 1017.3
20200922095608 9 277 0.0 0.0 0.00 0.00 0.00 90 1017.3
20200922095042 10 277 0.0 0.0 0.00 0.00 0.00 90 1017.3
20200922094702 10 277 0.0 0.0 0.00 0.00 0.00 90 1017.3
20200922094042 10 277 0.0 0.0 0.00 0.00 0.00 89 1017.2
20200922093540 10 277 0.0 1.6 0.00 0.00 0.00 89 1017.3
20200922093120 10 277 0.0 1.6 0.00 0.00 0.00 88 1017.3
20200922092539 10 277 0.0 3.2 0.00 0.00 0.00 88 1017.4
20200922092039 10 277 0.0 3.2 0.00 0.00 0.00 87 1017.4
20200922091634 10 277 1.6 3.2 0.00 0.00 0.00 87 1017.4
20200922091044 10 277 0.0 0.0 0.00 0.00 0.00 88 1017.4
20200922090555 10 277 0.0 0.0 0.00 0.00 0.00 88 1017.4
20200922090051 10 277 0.0 0.0 0.00 0.00 0.00 88 1017.4
20200922085541 10 277 0.0 0.0 0.00 0.00 0.00 88 1017.4
20200922085038 10 277 0.0 0.0 0.00 0.00 0.00 88 1017.4
20200922084608 10 277 0.0 0.0 0.00 0.00 0.00 88 1017.3
20200922084034 10 277 0.0 0.0 0.00 0.00 0.00 88 1017.3
20200922083534 10 277 0.0 0.0 0.00 0.00 0.00 87 1017.4
20200922083051 10 277 0.0 0.0 0.00 0.00 0.00 87 1017.4
20200922082533 11 277 0.0 0.0 0.00 0.00 0.00 87 1017.4
20200922082034 11 277 0.0 0.0 0.00 0.00 0.00 86 1017.4
20200922081551 11 277 0.0 0.0 0.00 0.00 0.00 86 1017.5
20200922081033 11 277 0.0 0.0 0.00 0.00 0.00 85 1017.5
20200922080532 11 277 0.0 0.0 0.00 0.00 0.00 85 1017.4
20200922080126 11 277 0.0 0.0 0.00 0.00 0.00 85 1017.5
20200922075531 11 277 0.0 0.0 0.00 0.00 0.00 85 1017.5
20200922075029 11 277 0.0 0.0 0.00 0.00 0.00 86 1017.5
20200922074603 11 277 0.0 0.0 0.00 0.00 0.00 85 1017.5
20200922074027 11 277 0.0 0.0 0.00 0.00 0.00 86 1017.5
20200922073537 11 277 0.0 3.2 0.00 0.00 0.00 86 1017.5
20200922073051 11 277 0.0 3.2 0.00 0.00 0.00 86 1017.5
20200922072527 11 277 0.0 3.2 0.00 0.00 0.00 86 1017.6
20200922072027 11 277 0.0 1.6 0.00 0.00 0.00 85 1017.6
20200922071605 11 277 0.0 3.2 0.00 0.00 0.00 85 1017.5
20200922071026 11 277 0.0 3.2 0.00 0.00 0.00 85 1017.6
20200922070525 11 277 0.0 3.2 0.00 0.00 0.00 87 1017.5
20200922070102 11 277 0.0 0.0 0.00 0.00 0.00 87 1017.5
20200922065525 11 277 0.0 0.0 0.00 0.00 0.00 88 1017.5
20200922065025 11 277 0.0 0.0 0.00 0.00 0.00 87 1017.5
20200922064654 11 277 0.0 0.0 0.00 0.00 0.00 86 1017.5
20200922064026 12 277 0.0 0.0 0.00 0.00 0.00 85 1017.5
20200922063525 11 277 0.0 0.0 0.00 0.00 0.00 86 1017.5
20200922063036 11 277 0.0 0.0 0.00 0.00 0.00 86 1017.5
20200922062525 11 277 0.0 0.0 0.00 0.00 0.00 86 1017.6
20200922062020 12 277 0.0 0.0 0.00 0.00 0.00 85 1017.5
20200922061551 12 277 0.0 0.0 0.00 0.00 0.00 85 1017.5
20200922061019 12 277 0.0 0.0 0.00 0.00 0.00 85 1017.5
20200922060518 12 277 0.0 0.0 0.00 0.00 0.00 85 1017.6
20200922060026 12 277 0.0 0.0 0.00 0.00 0.00 85 1017.6
20200922055519 12 277 0.0 0.0 0.00 0.00 0.00 84 1017.6
20200922055017 12 277 0.0 0.0 0.00 0.00 0.00 84 1017.7
20200922054605 12 277 0.0 0.0 0.00 0.00 0.00 81 1017.6
20200922054030 12 277 0.0 0.0 0.00 0.00 0.00 82 1017.6
20200922053515 12 277 0.0 0.0 0.00 0.00 0.00 82 1017.6
20200922053017 12 277 0.0 0.0 0.00 0.00 0.00 82 1017.6
20200922052516 12 277 0.0 0.0 0.00 0.00 0.00 84 1017.6
20200922052016 12 277 0.0 0.0 0.00 0.00 0.00 85 1017.6
20200922051631 12 277 0.0 0.0 0.00 0.00 0.00 84 1017.7
20200922051017 12 277 0.0 0.0 0.00 0.00 0.00 84 1017.6
20200922050515 12 277 0.0 0.0 0.00 0.00 0.00 83 1017.6
20200922045511 12 277 0.0 0.0 0.00 0.00 0.00 83 1017.7
20200922045056 13 277 0.0 0.0 0.00 0.00 0.00 82 1017.6
20200922044518 13 277 0.0 0.0 0.00 0.00 0.00 81 1017.6
20200922044008 13 277 0.0 0.0 0.00 0.00 0.00 81 1017.5
20200922043512 13 277 0.0 0.0 0.00 0.00 0.00 80 1017.5
20200922043020 13 277 0.0 0.0 0.00 0.00 0.00 80 1017.4
20200922042509 13 277 0.0 0.0 0.00 0.00 0.00 79 1017.4
20200922042006 13 277 0.0 0.0 0.00 0.00 0.00 79 1017.4
20200922041513 13 277 0.0 0.0 0.00 0.00 0.00 78 1017.3
20200922041005 13 277 0.0 0.0 0.00 0.00 0.00 78 1017.3
20200922040509 13 277 0.0 0.0 0.00 0.00 0.00 77 1017.3
20200922035505 14 277 0.0 0.0 0.00 0.00 0.00 75 1017.2
20200922035011 14 277 0.0 0.0 0.00 0.00 0.00 75 1017.1
20200922034536 14 277 0.0 0.0 0.00 0.00 0.00 75 1017.1
20200922034004 14 277 0.0 0.0 0.00 0.00 0.00 74 1017.1
20200922033510 15 277 0.0 0.0 0.00 0.00 0.00 73 1017.1
20200922033008 15 277 0.0 0.0 0.00 0.00 0.00 72 1017.1
20200922032109 15 277 0.0 0.0 0.00 0.00 0.00 72 1016.9
20200922031707 15 277 0.0 0.0 0.00 0.00 0.00 74 1016.9
20200922031103 15 277 0.0 0.0 0.00 0.00 0.00 73 1016.9
20200922030615 15 277 0.0 0.0 0.00 0.00 0.00 72 1016.8
20200922030225 15 277 0.0 0.0 0.00 0.00 0.00 70 1016.8
20200922025558 15 277 0.0 0.0 0.00 0.00 0.00 69 1016.7
20200922025059 15 277 0.0 0.0 0.00 0.00 0.00 68 1016.8
20200922024827 16 277 0.0 0.0 0.00 0.00 0.00 68 1016.7
20200922024106 16 277 0.0 0.0 0.00 0.00 0.00 69 1016.8
20200922023604 16 277 0.0 0.0 0.00 0.00 0.00 70 1016.7
20200922023242 16 277 0.0 0.0 0.00 0.00 0.00 69 1016.7
20200922022613 16 277 0.0 0.0 0.00 0.00 0.00 68 1016.7
20200922022057 16 277 0.0 0.0 0.00 0.00 0.00 66 1016.7
20200922021712 16 277 0.0 0.0 0.00 0.00 0.00 64 1016.6
20200922021107 17 277 0.0 0.0 0.00 0.00 0.00 64 1016.7
20200922020601 17 277 0.0 0.0 0.00 0.00 0.00 64 1016.6
20200922020208 17 277 0.0 0.0 0.00 0.00 0.00 63 1016.6
20200922015617 17 277 0.0 0.0 0.00 0.00 0.00 61 1016.6
20200922015058 18 277 0.0 0.0 0.00 0.00 0.00 61 1016.5
20200922014657 17 277 0.0 0.0 0.00 0.00 0.00 62 1016.5
20200922014054 18 277 0.0 0.0 0.00 0.00 0.00 60 1016.5
20200922013558 17 277 0.0 0.0 0.00 0.00 0.00 63 1016.3
20200922013149 17 277 0.0 0.0 0.00 0.00 0.00 62 1016.3
20200922012552 17 277 0.0 0.0 0.00 0.00 0.00 61 1016.3
20200922012053 18 277 0.0 0.0 0.00 0.00 0.00 60 1016.2
20200922011629 18 277 0.0 0.0 0.00 0.00 0.00 60 1016.3
20200922011054 18 277 0.0 0.0 0.00 0.00 0.00 59 1016.2
20200922010552 18 277 0.0 0.0 0.00 0.00 0.00 59 1016.2
20200922010203 18 277 0.0 0.0 0.00 0.00 0.00 57 1016.1
20200922005550 18 277 0.0 0.0 0.00 0.00 0.00 57 1016.0
20200922005050 19 277 0.0 0.0 0.00 0.00 0.00 56 1016.0
20200922004646 20 277 0.0 0.0 0.00 0.00 0.00 53 1016.1
20200922004116 20 277 0.0 0.0 0.00 0.00 0.00 52 1016.0
20200922003550 20 277 0.0 0.0 0.00 0.00 0.00 50 1015.8
20200922003112 21 277 0.0 1.6 0.00 0.00 0.00 47 1015.8
20200922002556 22 277 0.0 3.2 0.00 0.00 0.00 45 1015.8
20200922002051 23 277 0.0 6.4 0.00 0.00 0.00 41 1015.7
20200922001700 23 277 3.2 6.4 0.00 0.00 0.00 39 1015.7
20200922001053 23 277 3.2 8.0 0.00 0.00 0.00 39 1015.6
20200922000551 24 278 3.2 11.3 0.00 0.00 0.00 38 1015.5
20200922000118 24 274 4.8 12.9 0.00 0.00 0.00 37 1015.6
20200921235551 25 273 4.8 12.9 0.00 0.00 0.00 37 1015.6
20200921235052 25 281 4.8 12.9 0.00 0.00 0.00 37 1015.5
20200921234800 25 268 4.8 16.1 0.00 0.00 0.00 36 1015.5
20200921234048 25 281 6.4 16.1 0.00 0.00 0.00 36 1015.4
20200921233549 25 284 6.4 22.5 0.00 0.00 0.00 35 1015.3
20200921233117 26 318 8.0 22.5 0.00 0.00 0.00 35 1015.2
20200921232555 26 288 4.8 20.9 0.00 0.00 0.00 35 1015.3
20200921232059 26 281 9.7 20.9 0.00 0.00 0.00 35 1015.2
20200921231621 26 244 8.0 22.5 0.00 0.00 0.00 34 1015.2
20200921231047 26 288 9.7 22.5 0.00 0.00 0.00 35 1015.2
20200921230601 26 263 8.0 19.3 0.00 0.00 0.00 35 1015.1
20200921230238 26 271 8.0 17.7 0.00 0.00 0.00 35 1015.1
20200921225549 26 288 9.7 17.7 0.00 0.00 0.00 34 1015.0
20200921225045 26 263 8.0 24.1 0.00 0.00 0.00 35 1015.0
20200921224605 26 286 11.3 24.1 0.00 0.00 0.00 33 1015.0
20200921224108 26 300 12.9 24.1 0.00 0.00 0.00 34 1014.9
20200921223544 26 271 9.7 25.7 0.00 0.00 0.00 36 1015.0
20200921223143 27 277 12.9 25.7 0.00 0.00 0.00 34 1015.0
20200921222607 27 300 12.9 19.3 0.00 0.00 0.00 34 1014.9
20200921222042 27 315 9.7 17.7 0.00 0.00 0.00 35 1014.9
20200921221604 27 283 9.7 24.1 0.00 0.00 0.00 36 1014.9
20200921221042 27 263 11.3 24.1 0.00 0.00 0.00 35 1014.9
20200921220548 27 242 8.0 29.0 0.00 0.00 0.00 35 1014.9
20200921220131 27 309 14.5 29.0 0.00 0.00 0.00 34 1014.9
20200921215556 27 290 11.3 25.7 0.00 0.00 0.00 34 1014.8
20200921215045 27 264 14.5 30.6 0.00 0.00 0.00 34 1014.9
20200921214609 27 274 12.9 30.6 0.00 0.00 0.00 34 1014.9
20200921214046 27 231 14.5 27.4 0.00 0.00 0.00 33 1014.8
20200921213601 27 280 14.5 27.4 0.00 0.00 0.00 32 1014.9
20200921213117 27 250 14.5 27.4 0.00 0.00 0.00 32 1014.9
20200921212536 27 277 12.9 25.7 0.00 0.00 0.00 32 1014.8
20200921212037 27 252 11.3 29.0 0.00 0.00 0.00 32 1014.8
20200921211607 27 257 12.9 29.0 0.00 0.00 0.00 32 1014.8
20200921211037 27 279 11.3 27.4 0.00 0.00 0.00 32 1014.8
20200921210534 27 262 9.7 25.7 0.00 0.00 0.00 33 1014.9
20200921210143 27 248 14.5 29.0 0.00 0.00 0.00 32 1014.7